Regional Weather Roundup
Issued by NWS Little Rock, AR

Home | Current Version | Previous Version | Graphics & Text | Print | Product List | Glossary On
Versions: 1 2 3 4 5 6 7 8 9 10 11 12 13 14 15 16 17 18 19 20 21 22 23 24 25 26 27 28 29 30 31 32 33 34 35 36 37 38 39 40 41 42 43 44 45 46 47 48 49 50
000
ASUS44 KLZK 010005
RWRLZK

WEATHER ROUNDUP FOR ARKANSAS
NATIONAL WEATHER SERVICE LITTLE ROCK AR
700 PM CDT THU JUL 31 2014

NOTE: "FAIR" INDICATES FEW OR NO CLOUDS BELOW 12,000 FEET WITH NO
SIGNIFICANT WEATHER AND/OR OBSTRUCTIONS TO VISIBILITY.

ARZ001-003-010-029-010100-
NORTHWEST ARKANSAS

CITY           SKY/WX    TMP DP  RH WIND       PRES   REMARKS
FAYETTEVILLE   CLOUDY    72  65  78 NE3       30.07S
6HR MIN TEMP:  67; 6HR MAX TEMP:  73;

FORT SMITH     CLOUDY    72  65  78 E6        30.04F
6HR MIN TEMP:  71; 6HR MAX TEMP:  73;

HARRISON       CLOUDY    70  65  84 E6        30.08S
6HR MIN TEMP:  68; 6HR MAX TEMP:  71; 6HR PCP: TRACE;

BENTONVILLE    CLOUDY    72  64  78 SE3       30.08S
6HR MIN TEMP:  66; 6HR MAX TEMP:  72; 6HR PCP:  0.42;

ROGERS         CLOUDY    69  66  90 E3        30.08F
6HR MIN TEMP:  67; 6HR MAX TEMP:  69; 6HR PCP:  0.28;

SILOAM SPGS    CLOUDY    70  63  78 CALM      30.08S
6HR MIN TEMP:  66; 6HR MAX TEMP:  72; 6HR PCP:  0.03;

HIGHFILL       CLOUDY    70  67  90 CALM      30.07S
6HR MIN TEMP:  66; 6HR MAX TEMP:  70; 6HR PCP:  0.09;

SPRINGDALE     CLOUDY    70  66  88 NE5       30.09S
$$

ARZ004-005-016-010100-
NORTH CENTRAL ARKANSAS

CITY           SKY/WX    TMP DP  RH WIND       PRES   REMARKS
BATESVILLE     CLOUDY    72  66  83 E5        30.06F
6HR MIN TEMP:  72; 6HR MAX TEMP:  73;

FLIPPIN        CLOUDY    70  64  83 CALM      30.08R
6HR MIN TEMP:  68; 6HR MAX TEMP:  70;

MTN HOME       CLOUDY    68  66  93 S5        30.07S
6HR MIN TEMP:  67; 6HR MAX TEMP:  69; 6HR PCP:  0.01;

$$

ARZ040-041-010100-
WEST CENTRAL ARKANSAS

CITY           SKY/WX    TMP DP  RH WIND       PRES   REMARKS
MENA           CLOUDY    68  66  94 E5        30.06S
MOUNT IDA      CLOUDY    68  66  93 CALM      30.04S FOG
6HR MIN TEMP:  67; 6HR MAX TEMP:  69; 6HR PCP: TRACE;

$$

ARZ009-017-025-026-028-010100-
NORTHEAST ARKANSAS

CITY           SKY/WX    TMP DP  RH WIND       PRES   REMARKS
CORNING        FAIR      73  66  78 S5        30.07S
JONESBORO      CLOUDY    73  65  75 CALM      30.06F
6HR MIN TEMP:  70; 6HR MAX TEMP:  74;

NEWPORT        CLOUDY    73  67  81 CALM      30.08S
6HR MIN TEMP:  73; 6HR MAX TEMP:  77; 6HR PCP: TRACE;

WALNUT RIDGE   CLOUDY    72  64  78 CALM      30.06S
6HR MIN TEMP:  70; 6HR MAX TEMP:  73;

BLYTHEVILLE    CLOUDY    75  67  76 CALM      30.07S
6HR MIN TEMP:  75; 6HR MAX TEMP:  78;

$$

ARZ022-023-033-042-044-010100-
CENTRAL ARKANSAS

CITY           SKY/WX    TMP DP  RH WIND       PRES   REMARKS
LITTLE ROCK    CLOUDY    71  66  84 E5        30.06S
6HR MIN TEMP:  71; 6HR MAX TEMP:  75; 6HR PCP:  0.01;

N LITTLE ROCK  CLOUDY    71  68  91 E7        30.06S
6HR MIN TEMP:  71; 6HR MAX TEMP:  74;

JACKSONVILLE   CLOUDY    71  67  88 NE5       30.06S
6HR MIN TEMP:  71; 6HR MAX TEMP:  74; 6HR PCP:  0.02;

SEARCY         CLOUDY    71  67  87 VRB5      30.08S
6HR MIN TEMP:  70; 6HR MAX TEMP:  72; 6HR PCP:  0.01;

HOT SPRINGS    CLOUDY    67  65  93 E6        30.07S FOG
6HR MIN TEMP:  67; 6HR MAX TEMP:  73; 6HR PCP:  0.02;

RUSSELLVILLE   CLOUDY    71  67  87 CALM      30.06S
6HR MIN TEMP:  71; 6HR MAX TEMP:  74;

CLINTON        CLOUDY    72  68  88 CALM      30.07S
$$

ARZ036-010100-
EAST ARKANSAS

CITY           SKY/WX    TMP DP  RH WIND       PRES   REMARKS
WEST MEMPHIS   CLOUDY    74  66  76 CALM      30.05F
6HR MIN TEMP:  74; 6HR MAX TEMP:  80;

$$

ARZ050-053-066-070-073-010100-
SOUTHWEST ARKANSAS

CITY           SKY/WX    TMP DP  RH WIND       PRES   REMARKS
ARKADELPHIA    MOCLDY    68  67  96 CALM      30.06R
6HR MIN TEMP:  68; 6HR MAX TEMP:  71; 6HR PCP:  0.30;

CAMDEN         LGT RAIN  70  66  88 NE5       30.03S
TEXARKANA      LGT RAIN  69  69 100 E8        30.00S FOG
6HR MIN TEMP:  69; 6HR MAX TEMP:  70; 6HR PCP:  0.19;

EL DORADO      LGT RAIN  71  68  90 NE9       30.02F
6HR MIN TEMP:  71; 6HR MAX TEMP:  76; 6HR PCP: TRACE;

DE QUEEN       LGT RAIN  68  67  96 NE8       30.01S FOG
6HR MIN TEMP:  68; 6HR MAX TEMP:  69; 6HR PCP:  0.02;

$$

ARZ056-057-069-010100-
SOUTHEAST ARKANSAS

CITY           SKY/WX    TMP DP  RH WIND       PRES   REMARKS
PINE BLUFF     CLOUDY    73  67  81 E5        30.05F
6HR MIN TEMP:  73; 6HR MAX TEMP:  76; 6HR PCP:  0.02;

STUTTGART      CLOUDY    72  66  83 NE7       30.07S
6HR MIN TEMP:  72; 6HR MAX TEMP:  75;

MONTICELLO     LGT RAIN  73  69  87 CALM      30.04F
6HR MIN TEMP:  73; 6HR MAX TEMP:  78; 6HR PCP:  0.03;


$$




USA.gov is the U.S. government's official web portal to all federal, state and local government web resources and services.